User: anonymous   Login
Location: Unspecified
(0.0000°N, 0.0000°E)
Time: 11:13:50
(UTC+00:00)
Language:

Kosmos-1610 - Orbit

View from above orbital plane
View from above orbital plane
View from above satellite
View from above satellite

Ground track
Ground track

The orbit data is extracted from the following two-line orbital elements,

1 15398U 84118A   18203.33533351  .00000017  00000-0  19533-5 0  9992
2 15398  82.9499 105.7438 0030469 256.5981 243.3906 13.73705983688785
Epoch (UTC): 22 July 2018 08:02:52
Eccentricity: 0.0030469
inclination: 82.9499°
perigee height: 964 km
apogee height: 1009 km
right ascension of ascending node: 105.7438°
argument of perigee: 256.5981°
revolutions per day: 13.73705983
mean anomaly at epoch: 243.3906°
orbit number at epoch: 68878

The dashed part of the orbit path shows where the satellite is in the earth's shadow,  

DLR